STARLINK-1709 (46561 NORAD) Tracking and Keplerian Element Data

This shows tracking and keplerian element data for the satellite.

Feedback or suggestion? Click here.




ElementValue
Catalog46561
NameSTARLINK-1709
Epoch Orbit460
Epoch Day304.55256019
Epoch Year2020
RAAN323.7457
Inclination52.9998
Eccentricity0.0001828
Argument of Perigee47.1682
Mean Anonmoly312.9484
Mean Motion15.62760648
Decay Rate-7.099E-05
L11 46561U 20070AF 20304.55256019 -.00007099 00000-0 -71723-4 0 9994
L22 46561 52.9998 323.7457 0001828 47.1682 312.9484 15.62760648 4600

Live tracking and technical data element details for STARLINK-1709 (NORAD 46561). STARLINK-1709 can be tracked NOW for your location showing map with azimuth and elevation plus other details from your city location.

Track the satellite on the map from your city or location and see movement details for azimuth, elevation, latitude, longitude, range, height, and movement on the map or in text.







IsCatalogInMostPopularTable: catalog: 46561, numindb: 3
Update: records affected: 1



GetName: 46561 STARLINK-1709

Hit Count: updated at: Sat, 31 Oct 2020 11:10:11 GMT